SENTINEL-2A (40697 NORAD) Tracking and Keplerian Element Data

This shows tracking and keplerian element data for the satellite.

Feedback or suggestion? Click here.




ElementValue
Catalog40697
NameSENTINEL-2A
Epoch Orbit16026
Epoch Day198.77395911
Epoch Year2018
RAAN273.0584
Inclination98.5663
Eccentricity0.0001037
Argument of Perigee78.5369
Mean Anonmoly281.5925
Mean Motion14.30817873
Decay Rate-3E-08
L11 40697U 15028A 18198.77395911 -.00000003 00000-0 15629-4 0 9992
L22 40697 98.5663 273.0584 0001037 78.5369 281.5925 14.30817873160262

Live tracking and technical data element details for SENTINEL-2A (NORAD 40697). SENTINEL-2A can be tracked NOW for your location showing map with azimuth and elevation plus other details from your city location.

Track the satellite on the map from your city or location and see movement details for azimuth, elevation, latitude, longitude, range, height, and movement on the map or in text.







IsCatalogInMostPopularTable: catalog: 40697, numindb: 59
Update: records affected: 1



GetName: 40697 SENTINEL-2A

Hit Count: updated at: Sat, 21 Jul 2018 07:39:42 GMT